Home   Weather   Cumberland   Past weeks

Flag for USA Past Weather in Cumberland, Maryland, USA — Yesterday and Last 2 Weeks

Now
30 °F

Passing clouds.


Feels Like: 30 °F
Forecast: 25 / 39 °F
Wind: No wind

Location: Eastern West Virginia Regional Airport

Current Time: Dec 8, 2016 at 5:15:23 am

Latest Report: Dec 8, 2016 at 3:53 am


Visibility: 10 mi

Pressure: 30.04 "Hg

Humidity: 85%

Dew Point: 26 °F

Location of CumberlandLocation

Past Weather in Cumberland — Graph

°F

Cumberland Temperature Yesterday

Maximum temperature yesterday: 49 °F (at 2:53 pm)
Minimum temperature yesterday: 31 °F (at 11:53 pm)
Average temperature yesterday: 40 °F

High & Low Weather Summary for the Past Weeks

 TemperatureHumidityPressure
High57 °F (Nov 30, 11:53 pm)100% (Nov 29, 6:53 pm)30.37 "Hg (Nov 29, 6:53 pm)
Low19 °F (Nov 23, 5:53 am)27% (Nov 23, 2:53 pm)29.54 "Hg (Nov 30, 10:53 pm)
Average42 °F69%30.07 "Hg
* Reported Nov 23 3:53 am — Dec 8 3:53 am, Cumberland, Weather by CustomWeather, © 2016

Note: Actual official high and low records may vary slightly from our data, if they occured in-between our weather recording intervals... More about our weather records

Advertising

Cumberland Weather History for the Previous 24 Hours

Scroll right to see more
 ConditionsComfort  
Time TempWeatherWind HumidityBarometerVisibility
3:53 am
Thu, Dec 8
30 °FPassing clouds.No wind85%30.04 "Hg10 mi
2:53 am28 °FPassing clouds.No wind85%30.06 "Hg10 mi
1:53 am30 °FClear.No wind79%30.05 "Hg10 mi
12:53 am29 °FClear.3 mph82%30.07 "Hg10 mi
11:53 pm
Wed, Dec 7
31 °FClear.No wind73%30.06 "Hg10 mi
10:53 pm32 °FClear.3 mph69%30.07 "Hg10 mi
9:53 pm37 °FClear.6 mph54%30.07 "Hg10 mi
8:53 pm40 °FClear.7 mph47%30.07 "Hg10 mi
7:53 pm36 °FClear.6 mph59%30.07 "Hg10 mi
6:53 pm43 °FClear.3 mph42%30.06 "Hg10 mi
5:53 pm44 °FClear.3 mph47%30.06 "Hg10 mi
4:53 pm46 °FClear.No wind46%30.04 "Hg10 mi
3:53 pm48 °FSunny.6 mph41%30.04 "Hg10 mi
2:53 pm49 °FSunny.9 mph39%30.03 "Hg10 mi
1:53 pm48 °FSunny.12 mph43%30.03 "Hg10 mi
12:53 pm48 °FSunny.7 mph50%30.03 "Hg10 mi
11:53 am46 °FSunny.8 mph56%30.05 "Hg10 mi
10:53 am44 °FSunny.3 mph60%30.05 "Hg10 mi
9:53 am42 °FSunny.12 mph68%30.06 "Hg10 mi
8:53 am41 °FPartly sunny.3 mph76%30.05 "Hg10 mi
7:53 am42 °FPartly sunny.8 mph76%30.03 "Hg10 mi
7:04 am37 °FFog.N/A96%29.99 "Hg1 mi
6:53 am37 °FFog.No wind96%30.00 "Hg0 mi
6:04 am37 °FFog.No wind96%29.97 "Hg0 mi
5:53 am37 °FFog.No wind96%29.98 "Hg0 mi
5:02 am37 °FFog.No wind96%29.93 "Hg0 mi
Weather by CustomWeather, © 2016

See weather overviewHow to use our weather pages